Tracking 20719 objects as of 26-May-2020
HD Live streaming from Space Station
objects crossing your sky now

LEASAT 1

Track LEASAT 1 now!
LEASAT 1 is classified as:


NORAD ID: 15384
Int'l Code: 1984-113C
Perigee: 36,176.0 km
Apogee: 36,393.4 km
Inclination: 13.4 °
Period: 1,461.3 minutes
Semi major axis: 42655 km
RCS: 16.1907 m2 (large)
Launch date: November 8, 1984
Source: United States (US)
Launch site: AIR FORCE EASTERN TEST RANGE (AFETR)
aabbcc
Your satellite tracking list
Your tracking list is empty




NASA's NSSDC Master Catalog

Two Line Element Set (TLE):
1 15384U 84113C   20144.95940442 -.00000202 +00000-0 +00000-0 0  9991
2 15384 013.4383 352.0734 0025485 252.0886 113.5254 00.98545506102189
Source of the keplerian elements: AFSPC